YO8RXT-3 Weather Reports


time (UTC)temp
F
wind
direction
speed
knots
gust
knots
rain 1hr
in
rain 24hr
in
rain mn
in
humidity
%
barometer
mb
20260507110502 75 150 13.9 0.0 0.00 0.00 0.00 31 1015.0
20260507103503 75 160 11.3 0.0 0.00 0.00 0.00 31 1015.0
20260507100502 73 160 12.2 0.0 0.00 0.00 0.00 31 1015.0
20260507093502 72 170 8.7 0.0 0.00 0.00 0.00 31 1015.0
20260507090502 73 150 12.2 0.0 0.00 0.00 0.00 31 1015.0
20260507083502 72 150 9.6 0.0 0.00 0.00 0.00 33 1015.0
20260507080503 72 160 8.7 0.0 0.00 0.00 0.00 33 1016.0
20260507073503 70 150 9.6 0.0 0.00 0.00 0.00 35 1016.0
20260507070502 66 130 8.7 0.0 0.00 0.00 0.00 46 1016.0
20260507063503 63 120 9.6 0.0 0.00 0.00 0.00 52 1016.0
20260507060501 61 100 11.3 0.0 0.00 0.00 0.00 55 1016.0
20260507053502 59 110 11.3 0.0 0.00 0.00 0.00 59 1016.0
20260507050502 55 110 11.3 0.0 0.00 0.00 0.00 63 1015.0
20260507043502 54 110 9.6 0.0 0.00 0.00 0.00 67 1015.0
20260507040502 54 100 7.8 0.0 0.00 0.00 0.00 67 1015.0
20260507033501 52 90 7.8 0.0 0.00 0.00 0.00 67 1015.0
20260507030503 50 100 7.0 0.0 0.00 0.00 0.00 71 1015.0
20260507023502 50 90 7.0 0.0 0.00 0.00 0.00 71 1015.0
20260507020502 52 90 7.0 0.0 0.00 0.00 0.00 67 1014.0
20260507013502 55 110 7.8 0.0 0.00 0.00 0.00 55 1014.0
20260507010503 57 130 7.8 0.0 0.00 0.00 0.00 48 1014.0
20260507003502 57 140 7.8 0.0 0.00 0.00 0.00 48 1015.0
20260507000503 57 150 7.0 0.0 0.00 0.00 0.00 48 1015.0
20260506233503 59 160 7.0 0.0 0.00 0.00 0.00 45 1015.0
20260506230503 63 160 11.3 0.0 0.00 0.00 0.00 42 1015.0
20260506223503 61 170 7.8 0.0 0.00 0.00 0.00 48 1014.0
20260506220503 63 180 7.8 0.0 0.00 0.00 0.00 49 1015.0
20260506213503 63 180 8.7 0.0 0.00 0.00 0.00 49 1014.0
20260506210502 64 180 9.6 0.0 0.00 0.00 0.00 46 1014.0
20260506203503 64 180 11.3 0.0 0.00 0.00 0.00 46 1014.0
20260506200502 66 170 8.7 0.0 0.00 0.00 0.00 43 1014.0
20260506193502 66 160 8.7 0.0 0.00 0.00 0.00 43 1014.0
20260506190503 68 160 8.7 0.0 0.00 0.00 0.00 40 1014.0
20260506183503 70 180 11.3 0.0 0.00 0.00 0.00 38 1013.0
20260506180502 72 190 9.6 0.0 0.00 0.00 0.00 36 1013.0
20260506173503 72 190 8.7 0.0 0.00 0.00 0.00 36 1013.0
20260506170502 73 180 7.8 0.0 0.00 0.00 0.00 31 1012.0
20260506163502 75 170 7.8 0.0 0.00 0.00 0.00 31 1012.0
20260506160503 75 150 12.2 0.0 0.00 0.00 0.00 29 1012.0
20260506153502 77 160 11.3 0.0 0.00 0.00 0.00 30 1012.0
20260506150502 79 160 7.8 0.0 0.00 0.00 0.00 30 1012.0
20260506143502 79 190 7.0 0.0 0.00 0.00 0.00 28 1012.0
20260506140502 81 7.0 0.0 0.00 0.00 0.00 30 1012.0
20260506133503 79 140 9.6 0.0 0.00 0.00 0.00 28 1012.0
20260506130502 81 170 7.8 0.0 0.00 0.00 0.00 26 1012.0
20260506123502 81 180 6.1 0.0 0.00 0.00 0.00 26 1013.0
20260506120503 79 5.2 0.0 0.00 0.00 0.00 28 1013.0
20260506113502 79 200 6.1 0.0 0.00 0.00 0.00 26 1013.0